TAX1846 LCLK-LGTS

Flight info

Callsign TAX1846
Flight time 1h 53m
Altitude 38000
Route PHA M31 GENOS DCT PEDER DCT EVENO UM601 RDS UL609 MES DCT KERES UT514 OSMOS
Aircraft A320/M-SDE3FGHIRWY/LB1

Departure

Time 2026-05-06 16:24
Airport Larnaca International Airport (LCLK)

Arrival

Time 2026-05-06 18:17
Airport Thessaloniki Macedonia International Airport (LGTS)
Time Latitude Longitude Altitude Speed Heading
2026-05-06 15:49 34.86997 33.61111 23 ft 0 kts 225°
2026-05-06 16:13 34.87010 33.61127 20 ft 4 kts 224°
2026-05-06 16:13 34.87027 33.61151 22 ft 4 kts 246°
2026-05-06 16:14 34.87036 33.61178 22 ft 4 kts 216°
2026-05-06 16:14 34.87051 33.61179 23 ft 2 kts 136°
2026-05-06 16:14 34.87065 33.61164 21 ft 1 kts 135°
2026-05-06 16:14 34.87065 33.61163 20 ft 0 kts 135°
2026-05-06 16:17 34.87062 33.61167 22 ft 4 kts 135°
2026-05-06 16:17 34.87014 33.61225 20 ft 15 kts 135°
2026-05-06 16:17 34.86937 33.61317 19 ft 17 kts 135°
2026-05-06 16:18 34.86890 33.61433 20 ft 13 kts 56°
2026-05-06 16:18 34.86956 33.61521 18 ft 17 kts 45°
2026-05-06 16:18 34.87036 33.61617 22 ft 15 kts 45°
2026-05-06 16:18 34.87101 33.61696 21 ft 12 kts 45°
2026-05-06 16:19 34.87156 33.61764 21 ft 12 kts 45°
2026-05-06 16:19 34.87212 33.61833 22 ft 11 kts 45°
2026-05-06 16:19 34.87261 33.61894 22 ft 11 kts 45°
2026-05-06 16:19 34.87336 33.61985 20 ft 19 kts 44°
2026-05-06 16:20 34.87432 33.62104 19 ft 19 kts 45°
2026-05-06 16:20 34.87522 33.62212 18 ft 18 kts 45°
2026-05-06 16:20 34.87622 33.62333 16 ft 23 kts 45°
2026-05-06 16:20 34.87737 33.62476 19 ft 24 kts 45°
2026-05-06 16:21 34.87853 33.62619 20 ft 23 kts 45°
2026-05-06 16:21 34.87965 33.62754 21 ft 23 kts 45°
2026-05-06 16:21 34.88074 33.62886 22 ft 21 kts 45°
2026-05-06 16:21 34.88178 33.63013 18 ft 21 kts 45°
2026-05-06 16:22 34.88279 33.63135 18 ft 19 kts 45°
2026-05-06 16:22 34.88372 33.63247 17 ft 18 kts 46°
2026-05-06 16:22 34.88442 33.63361 18 ft 15 kts 89°
2026-05-06 16:22 34.88393 33.63450 19 ft 12 kts 120°
2026-05-06 16:23 34.88376 33.63538 19 ft 10 kts 110°
2026-05-06 16:23 34.88329 33.63556 18 ft 8 kts 221°
2026-05-06 16:23 34.88326 33.63553 18 ft 0 kts 222°
2026-05-06 16:23 34.88204 33.63409 16 ft 63 kts 225°
2026-05-06 16:24 34.87736 33.62833 22 ft 125 kts 225°
2026-05-06 16:24 34.87021 33.61968 301 ft 151 kts 224°
2026-05-06 16:24 34.86287 33.61085 1037 ft 150 kts 224°
2026-05-06 16:24 34.85554 33.60175 1756 ft 151 kts 227°
2026-05-06 16:25 34.84801 33.59182 2192 ft 170 kts 229°
2026-05-06 16:25 34.83950 33.58051 2554 ft 192 kts 229°
2026-05-06 16:25 34.82990 33.56786 2871 ft 215 kts 229°
2026-05-06 16:25 34.81918 33.55385 3229 ft 239 kts 228°
2026-05-06 16:26 34.80720 33.53831 3756 ft 261 kts 228°
2026-05-06 16:26 34.79454 33.52200 4632 ft 268 kts 227°
2026-05-06 16:26 34.78164 33.50547 5544 ft 274 kts 228°
2026-05-06 16:26 34.76842 33.48857 6490 ft 277 kts 228°
2026-05-06 16:27 34.75501 33.47143 7392 ft 281 kts 229°
2026-05-06 16:27 34.74143 33.45404 8326 ft 284 kts 229°
2026-05-06 16:27 34.72779 33.43661 9268 ft 286 kts 229°
2026-05-06 16:27 34.71401 33.41902 10173 ft 290 kts 229°
2026-05-06 16:28 34.70015 33.40007 10564 ft 310 kts 236°
2026-05-06 16:28 34.68898 33.37666 10935 ft 327 kts 249°
2026-05-06 16:28 34.68247 33.35002 11613 ft 332 kts 262°
2026-05-06 16:28 34.68103 33.32207 12382 ft 334 kts 274°
2026-05-06 16:29 34.68221 33.29365 13168 ft 338 kts 274°
2026-05-06 16:29 34.68341 33.26502 13928 ft 342 kts 274°
2026-05-06 16:29 34.68460 33.23598 14610 ft 345 kts 274°
2026-05-06 16:29 34.68577 33.20674 15357 ft 347 kts 274°
2026-05-06 16:30 34.68693 33.17738 16090 ft 348 kts 274°
2026-05-06 16:30 34.68771 33.15794 16586 ft 349 kts 274°
2026-05-06 16:30 34.68930 33.11853 17633 ft 349 kts 274°
2026-05-06 16:30 34.69048 33.08904 18389 ft 349 kts 274°
2026-05-06 16:31 34.69164 33.05950 19016 ft 351 kts 274°
2026-05-06 16:31 34.69279 33.03021 19614 ft 352 kts 274°
2026-05-06 16:31 34.69394 32.99998 20226 ft 354 kts 274°
2026-05-06 16:31 34.69504 32.97006 20815 ft 356 kts 274°
2026-05-06 16:32 34.69614 32.93995 21388 ft 358 kts 274°
2026-05-06 16:32 34.69725 32.91001 21960 ft 360 kts 274°
2026-05-06 16:32 34.69841 32.87954 22516 ft 362 kts 275°
2026-05-06 16:32 34.69958 32.84897 23059 ft 364 kts 275°
2026-05-06 16:33 34.70075 32.81806 23578 ft 366 kts 275°
2026-05-06 16:33 34.70187 32.78699 24038 ft 369 kts 275°
2026-05-06 16:33 34.70297 32.75579 24478 ft 371 kts 275°
2026-05-06 16:34 34.70521 32.69293 25332 ft 375 kts 275°
2026-05-06 16:34 34.70636 32.66125 25767 ft 377 kts 275°
2026-05-06 16:34 34.70750 32.62929 26158 ft 379 kts 275°
2026-05-06 16:34 34.70862 32.59720 26544 ft 381 kts 275°
2026-05-06 16:35 34.70974 32.56488 26937 ft 384 kts 275°
2026-05-06 16:35 34.71085 32.53245 27339 ft 386 kts 275°
2026-05-06 16:35 34.71144 32.49974 27734 ft 389 kts 270°
2026-05-06 16:35 34.70981 32.46682 28118 ft 392 kts 269°
2026-05-06 16:36 34.70810 32.43358 28509 ft 394 kts 269°
2026-05-06 16:36 34.70636 32.40028 28897 ft 396 kts 269°
2026-05-06 16:36 34.70457 32.36678 29246 ft 398 kts 269°
2026-05-06 16:36 34.70275 32.33315 29635 ft 399 kts 269°
2026-05-06 16:37 34.70093 32.29939 29992 ft 401 kts 269°
2026-05-06 16:37 34.69910 32.26545 30302 ft 403 kts 269°
2026-05-06 16:37 34.69725 32.23135 30601 ft 405 kts 269°
2026-05-06 16:37 34.69539 32.19720 30906 ft 406 kts 269°
2026-05-06 16:38 34.69351 32.16287 31200 ft 407 kts 269°
2026-05-06 16:38 34.69163 32.12854 31507 ft 408 kts 270°
2026-05-06 16:38 34.68976 32.09411 31901 ft 406 kts 270°
2026-05-06 16:38 34.68794 32.06050 32334 ft 404 kts 270°
2026-05-06 16:39 34.68605 32.02649 32794 ft 401 kts 270°
2026-05-06 16:39 34.68415 31.99293 33244 ft 398 kts 270°
2026-05-06 16:39 34.68222 31.95940 33696 ft 395 kts 270°
2026-05-06 16:39 34.68240 31.92624 34133 ft 389 kts 279°
2026-05-06 16:40 34.68747 31.89432 34456 ft 385 kts 288°
2026-05-06 16:40 34.69726 31.86423 34739 ft 384 kts 297°
2026-05-06 16:40 34.71070 31.83613 34976 ft 385 kts 300°
2026-05-06 16:40 34.72450 31.80807 35202 ft 386 kts 300°
2026-05-06 16:41 34.73821 31.77997 35462 ft 387 kts 300°
2026-05-06 16:41 34.75189 31.75180 35709 ft 388 kts 300°
2026-05-06 16:41 34.76562 31.72347 35932 ft 388 kts 300°
2026-05-06 16:41 34.77932 31.69520 36163 ft 389 kts 300°
2026-05-06 16:42 34.79312 31.66677 36363 ft 390 kts 300°
2026-05-06 16:42 34.80694 31.63826 36572 ft 391 kts 300°
2026-05-06 16:42 34.82079 31.60967 36778 ft 392 kts 300°
2026-05-06 16:42 34.83469 31.58099 36983 ft 393 kts 299°
2026-05-06 16:43 34.84858 31.55231 37194 ft 394 kts 299°
2026-05-06 16:43 34.86248 31.52359 37381 ft 395 kts 299°
2026-05-06 16:43 34.87644 31.49475 37589 ft 395 kts 299°
2026-05-06 16:43 34.89046 31.46576 37798 ft 396 kts 299°
2026-05-06 16:44 34.90443 31.43687 37996 ft 397 kts 299°
2026-05-06 16:44 34.93245 31.37879 38085 ft 398 kts 299°
2026-05-06 16:45 34.96047 31.32058 38082 ft 398 kts 299°
2026-05-06 16:45 34.98365 31.27221 38080 ft 398 kts 299°
2026-05-06 16:46 35.01155 31.21398 38080 ft 397 kts 299°
2026-05-06 16:46 35.03942 31.15591 38082 ft 396 kts 299°
2026-05-06 16:47 35.06726 31.09777 38082 ft 396 kts 299°
2026-05-06 16:47 35.09491 31.03966 38115 ft 396 kts 299°
2026-05-06 16:48 35.12269 30.98138 38099 ft 396 kts 299°
2026-05-06 16:48 35.15034 30.92318 38087 ft 396 kts 300°
2026-05-06 16:49 35.17879 30.86555 38099 ft 396 kts 306°
2026-05-06 16:49 35.21580 30.81542 38089 ft 397 kts 311°
2026-05-06 16:50 35.25367 30.76607 38090 ft 398 kts 311°
2026-05-06 16:50 35.29150 30.71669 38086 ft 397 kts 311°
2026-05-06 16:51 35.32921 30.66723 38093 ft 397 kts 311°
2026-05-06 16:51 35.36695 30.61773 38089 ft 397 kts 311°
2026-05-06 16:52 35.40470 30.56822 38086 ft 397 kts 311°
2026-05-06 16:52 35.44239 30.51863 38086 ft 397 kts 311°
2026-05-06 16:53 35.48003 30.46896 38108 ft 398 kts 311°
2026-05-06 16:53 35.51776 30.41924 38092 ft 398 kts 311°
2026-05-06 16:54 35.55550 30.36941 38092 ft 398 kts 311°
2026-05-06 16:54 35.59318 30.31960 38092 ft 398 kts 311°
2026-05-06 16:55 35.63099 30.26957 38097 ft 398 kts 311°
2026-05-06 16:55 35.66839 30.21981 38093 ft 398 kts 311°
2026-05-06 16:56 35.70608 30.16979 38096 ft 398 kts 311°
2026-05-06 16:56 35.74390 30.11949 38097 ft 398 kts 311°
2026-05-06 16:57 35.78126 30.06968 38093 ft 398 kts 311°
2026-05-06 16:57 35.81845 30.01934 38107 ft 396 kts 307°
2026-05-06 16:58 35.84429 29.95999 38089 ft 395 kts 290°
2026-05-06 16:58 35.86163 29.89579 38089 ft 395 kts 290°
2026-05-06 16:59 35.87909 29.83157 38084 ft 395 kts 290°
2026-05-06 16:59 35.89657 29.76724 38071 ft 396 kts 290°
2026-05-06 17:00 35.91388 29.70282 38076 ft 396 kts 290°
2026-05-06 17:00 35.93120 29.63840 38082 ft 396 kts 290°
2026-05-06 17:01 35.94858 29.57380 38087 ft 396 kts 290°
2026-05-06 17:01 35.96597 29.50918 38079 ft 396 kts 290°
2026-05-06 17:02 35.98332 29.44469 38082 ft 396 kts 290°
2026-05-06 17:02 36.00066 29.38010 38086 ft 396 kts 290°
2026-05-06 17:03 36.01800 29.31535 38086 ft 396 kts 290°
2026-05-06 17:03 36.03527 29.25064 38088 ft 396 kts 290°
2026-05-06 17:04 36.05252 29.18604 38080 ft 396 kts 290°
2026-05-06 17:04 36.06954 29.12170 38083 ft 396 kts 290°
2026-05-06 17:05 36.08687 29.05662 38087 ft 396 kts 290°
2026-05-06 17:05 36.10395 28.99222 38083 ft 396 kts 290°
2026-05-06 17:06 36.12109 28.92736 38078 ft 397 kts 290°
2026-05-06 17:06 36.13814 28.86251 38083 ft 397 kts 290°
2026-05-06 17:07 36.15521 28.79756 38088 ft 397 kts 290°
2026-05-06 17:07 36.17222 28.73251 38080 ft 396 kts 290°
2026-05-06 17:08 36.18919 28.66761 38071 ft 396 kts 290°
2026-05-06 17:08 36.20615 28.60275 38063 ft 396 kts 290°
2026-05-06 17:09 36.22303 28.53782 38053 ft 396 kts 290°
2026-05-06 17:09 36.23982 28.47296 38051 ft 396 kts 290°
2026-05-06 17:10 36.25657 28.40787 38049 ft 396 kts 290°
2026-05-06 17:10 36.27328 28.34283 38042 ft 396 kts 290°
2026-05-06 17:11 36.29003 28.27762 38038 ft 397 kts 290°
2026-05-06 17:11 36.30674 28.21232 38039 ft 397 kts 290°
2026-05-06 17:12 36.32339 28.14697 38046 ft 398 kts 290°
2026-05-06 17:12 36.34493 28.08423 38061 ft 395 kts 304°
2026-05-06 17:13 36.38167 28.03400 38040 ft 395 kts 316°
2026-05-06 17:13 36.42212 27.98758 38039 ft 396 kts 316°
2026-05-06 17:14 36.46249 27.94080 38041 ft 397 kts 316°
2026-05-06 17:14 36.50292 27.89392 38042 ft 398 kts 316°
2026-05-06 17:15 36.54340 27.84703 38044 ft 398 kts 316°
2026-05-06 17:15 36.58394 27.79997 38053 ft 398 kts 316°
2026-05-06 17:16 36.62444 27.75289 38058 ft 398 kts 316°
2026-05-06 17:16 36.66484 27.70580 38088 ft 398 kts 316°
2026-05-06 17:17 36.70527 27.65868 38083 ft 397 kts 316°
2026-05-06 17:17 36.74555 27.61167 38079 ft 397 kts 316°
2026-05-06 17:18 36.78589 27.56450 38092 ft 397 kts 316°
2026-05-06 17:18 36.82621 27.51729 38092 ft 397 kts 316°
2026-05-06 17:19 36.86638 27.47012 38076 ft 397 kts 316°
2026-05-06 17:19 36.90653 27.42288 38079 ft 397 kts 316°
2026-05-06 17:20 36.94678 27.37553 38101 ft 397 kts 316°
2026-05-06 17:20 36.98690 27.32823 38106 ft 396 kts 316°
2026-05-06 17:21 37.02689 27.28097 38105 ft 396 kts 316°
2026-05-06 17:21 37.06690 27.23370 38099 ft 396 kts 316°
2026-05-06 17:22 37.10697 27.18636 38088 ft 395 kts 316°
2026-05-06 17:22 37.14024 27.14694 38076 ft 396 kts 316°
2026-05-06 17:23 37.18023 27.09942 38088 ft 396 kts 316°
2026-05-06 17:23 37.22017 27.05181 38087 ft 396 kts 316°
2026-05-06 17:24 37.26019 27.00414 38090 ft 396 kts 316°
2026-05-06 17:24 37.30012 26.95649 38098 ft 396 kts 316°
2026-05-06 17:25 37.34042 26.90847 38099 ft 396 kts 316°
2026-05-06 17:25 37.38007 26.86089 38083 ft 396 kts 316°
2026-05-06 17:26 37.42041 26.81364 38089 ft 397 kts 318°
2026-05-06 17:26 37.46245 26.76858 38087 ft 397 kts 319°
2026-05-06 17:27 37.50485 26.72392 38086 ft 397 kts 319°
2026-05-06 17:27 37.54698 26.67868 38088 ft 397 kts 319°
2026-05-06 17:28 37.58896 26.63306 38094 ft 398 kts 319°
2026-05-06 17:28 37.63080 26.58751 38096 ft 398 kts 319°
2026-05-06 17:29 37.67273 26.54193 38080 ft 398 kts 318°
2026-05-06 17:29 37.71483 26.49624 38082 ft 398 kts 319°
2026-05-06 17:30 37.75694 26.45058 38081 ft 399 kts 318°
2026-05-06 17:30 37.79903 26.40476 38092 ft 399 kts 318°
2026-05-06 17:31 37.84104 26.35890 38107 ft 399 kts 318°
2026-05-06 17:31 37.88308 26.31295 38104 ft 399 kts 318°
2026-05-06 17:32 37.92501 26.26691 38103 ft 399 kts 318°
2026-05-06 17:32 37.96705 26.22070 38079 ft 399 kts 318°
2026-05-06 17:33 38.00908 26.17444 38082 ft 400 kts 318°
2026-05-06 17:33 38.05114 26.12814 38079 ft 400 kts 318°
2026-05-06 17:34 38.09311 26.08170 38076 ft 401 kts 318°
2026-05-06 17:34 38.13519 26.03516 38090 ft 401 kts 318°
2026-05-06 17:35 38.17726 25.98860 38098 ft 401 kts 318°
2026-05-06 17:35 38.21926 25.94196 38077 ft 401 kts 317°
2026-05-06 17:36 38.25865 25.89206 38080 ft 401 kts 306°
2026-05-06 17:36 38.27430 25.86260 38078 ft 401 kts 304°
2026-05-06 17:36 38.30519 25.80348 38078 ft 401 kts 304°
2026-05-06 17:37 38.33623 25.74430 38073 ft 402 kts 304°
2026-05-06 17:37 38.36720 25.68506 38076 ft 402 kts 304°
2026-05-06 17:38 38.39817 25.62553 38065 ft 402 kts 304°
2026-05-06 17:38 38.42911 25.56594 38067 ft 403 kts 304°
2026-05-06 17:39 38.46005 25.50636 38076 ft 403 kts 304°
2026-05-06 17:39 38.49100 25.44649 38082 ft 403 kts 304°
2026-05-06 17:40 38.52189 25.38667 38078 ft 403 kts 304°
2026-05-06 17:40 38.55277 25.32678 38067 ft 403 kts 303°
2026-05-06 17:41 38.58361 25.26684 38062 ft 404 kts 303°
2026-05-06 17:41 38.61443 25.20687 38062 ft 404 kts 303°
2026-05-06 17:42 38.64533 25.14666 38067 ft 405 kts 303°
2026-05-06 17:42 38.67614 25.08641 38070 ft 405 kts 303°
2026-05-06 17:43 38.70700 25.02606 38070 ft 405 kts 303°
2026-05-06 17:43 38.73780 24.96564 38058 ft 405 kts 303°
2026-05-06 17:44 38.76869 24.90508 38054 ft 406 kts 303°
2026-05-06 17:44 38.79953 24.84444 38059 ft 407 kts 303°
2026-05-06 17:45 38.83034 24.78353 38062 ft 407 kts 303°
2026-05-06 17:45 38.86113 24.72265 38071 ft 407 kts 303°
2026-05-06 17:46 38.89190 24.66174 38073 ft 407 kts 303°
2026-05-06 17:46 38.92274 24.60080 38070 ft 407 kts 303°
2026-05-06 17:47 38.95343 24.53978 38068 ft 407 kts 303°
2026-05-06 17:47 38.98525 24.47985 38064 ft 406 kts 310°
2026-05-06 17:48 39.02157 24.42415 38063 ft 406 kts 309°
2026-05-06 17:48 39.05756 24.36870 38053 ft 406 kts 309°
2026-05-06 17:49 39.09375 24.31268 38055 ft 407 kts 309°
2026-05-06 17:49 39.12989 24.25656 38053 ft 408 kts 309°
2026-05-06 17:50 39.16612 24.20034 38047 ft 408 kts 309°
2026-05-06 17:50 39.20235 24.14408 38051 ft 408 kts 309°
2026-05-06 17:51 39.23862 24.08771 38054 ft 408 kts 309°
2026-05-06 17:51 39.27507 24.03080 38042 ft 409 kts 309°
2026-05-06 17:52 39.31526 23.97902 38039 ft 410 kts 323°
2026-05-06 17:52 39.36304 23.93849 38039 ft 412 kts 325°
2026-05-06 17:53 39.38699 23.91815 37567 ft 415 kts 325°
2026-05-06 17:53 39.41136 23.89734 36576 ft 422 kts 325°
2026-05-06 17:53 39.43583 23.87645 35852 ft 421 kts 325°
2026-05-06 17:53 39.46039 23.85552 35094 ft 422 kts 325°
2026-05-06 17:54 39.48499 23.83458 34266 ft 424 kts 325°
2026-05-06 17:54 39.50958 23.81368 33609 ft 422 kts 325°
2026-05-06 17:54 39.53393 23.79298 33066 ft 415 kts 325°
2026-05-06 17:54 39.55797 23.77249 32504 ft 410 kts 325°
2026-05-06 17:55 39.58160 23.75226 31956 ft 405 kts 325°
2026-05-06 17:55 39.60482 23.73230 31419 ft 400 kts 325°
2026-05-06 17:55 39.62019 23.71905 31057 ft 398 kts 325°
2026-05-06 17:55 39.65091 23.69262 30361 ft 392 kts 325°
2026-05-06 17:56 39.66588 23.67975 29999 ft 390 kts 325°
2026-05-06 17:56 39.68867 23.66020 29429 ft 385 kts 325°
2026-05-06 17:56 39.71069 23.64136 28938 ft 380 kts 325°
2026-05-06 17:56 39.73256 23.62261 28450 ft 375 kts 325°
2026-05-06 17:57 39.75421 23.60407 27959 ft 370 kts 325°
2026-05-06 17:57 39.77577 23.58551 27469 ft 365 kts 325°
2026-05-06 17:57 39.79670 23.56748 27024 ft 360 kts 325°
2026-05-06 17:57 39.81745 23.54958 26572 ft 355 kts 325°
2026-05-06 17:58 39.83787 23.53194 26135 ft 350 kts 325°
2026-05-06 17:58 39.85806 23.51453 25715 ft 346 kts 325°
2026-05-06 17:58 39.87779 23.49750 25301 ft 341 kts 325°
2026-05-06 17:58 39.89773 23.48024 24889 ft 337 kts 325°
2026-05-06 17:59 39.91707 23.46346 24491 ft 333 kts 325°
2026-05-06 17:59 39.93629 23.44678 24075 ft 330 kts 325°
2026-05-06 17:59 39.95507 23.43050 23679 ft 327 kts 325°
2026-05-06 17:59 39.97409 23.41396 23224 ft 324 kts 325°
2026-05-06 18:00 39.99289 23.39765 22770 ft 322 kts 325°
2026-05-06 18:00 40.01148 23.38155 22334 ft 320 kts 325°
2026-05-06 18:00 40.02996 23.36550 21901 ft 319 kts 324°
2026-05-06 18:00 40.04842 23.34938 21460 ft 317 kts 324°
2026-05-06 18:01 40.06668 23.33344 21013 ft 316 kts 324°
2026-05-06 18:01 40.08501 23.31743 20567 ft 315 kts 324°
2026-05-06 18:01 40.10315 23.30156 20124 ft 315 kts 324°
2026-05-06 18:01 40.12132 23.28570 19688 ft 314 kts 324°
2026-05-06 18:02 40.13954 23.26981 19238 ft 314 kts 324°
2026-05-06 18:02 40.15777 23.25414 18806 ft 314 kts 326°
2026-05-06 18:02 40.17643 23.23906 18366 ft 315 kts 327°
2026-05-06 18:02 40.19528 23.22438 17880 ft 315 kts 328°
2026-05-06 18:03 40.21406 23.20994 17443 ft 314 kts 328°
2026-05-06 18:03 40.23291 23.19543 17011 ft 313 kts 328°
2026-05-06 18:03 40.25163 23.18092 16600 ft 313 kts 328°
2026-05-06 18:03 40.27031 23.16633 16165 ft 312 kts 328°
2026-05-06 18:04 40.28894 23.15170 15742 ft 312 kts 328°
2026-05-06 18:04 40.30764 23.13698 15320 ft 313 kts 328°
2026-05-06 18:04 40.32618 23.12235 14901 ft 313 kts 328°
2026-05-06 18:04 40.34485 23.10759 14481 ft 314 kts 328°
2026-05-06 18:05 40.35116 23.10260 14326 ft 314 kts 327°
2026-05-06 18:05 40.35525 23.09936 14234 ft 314 kts 327°
2026-05-06 18:05 40.36825 23.08977 13945 ft 314 kts 329°
2026-05-06 18:05 40.38715 23.07537 13478 ft 315 kts 328°
2026-05-06 18:06 40.40588 23.06046 13040 ft 314 kts 327°
2026-05-06 18:06 40.42447 23.04540 12604 ft 313 kts 327°
2026-05-06 18:06 40.44308 23.03034 12165 ft 312 kts 327°
2026-05-06 18:06 40.46155 23.01546 11726 ft 311 kts 327°
2026-05-06 18:07 40.48026 23.00048 11283 ft 311 kts 327°
2026-05-06 18:07 40.49849 22.98598 10840 ft 310 kts 327°
2026-05-06 18:07 40.51714 22.97118 10374 ft 311 kts 328°
2026-05-06 18:07 40.53562 22.95744 10143 ft 303 kts 330°
2026-05-06 18:08 40.55392 22.94485 10011 ft 292 kts 332°
2026-05-06 18:08 40.57208 22.93276 9742 ft 287 kts 332°
2026-05-06 18:08 40.59002 22.92086 9235 ft 290 kts 332°
2026-05-06 18:08 40.60804 22.90884 8712 ft 292 kts 332°
2026-05-06 18:09 40.62618 22.89664 8193 ft 293 kts 331°
2026-05-06 18:09 40.64441 22.88429 7666 ft 295 kts 331°
2026-05-06 18:09 40.66273 22.87182 7147 ft 297 kts 331°
2026-05-06 18:09 40.68108 22.85932 6618 ft 299 kts 330°
2026-05-06 18:10 40.70016 22.84782 5916 ft 306 kts 343°
2026-05-06 18:10 40.72073 22.84147 5643 ft 297 kts 346°
2026-05-06 18:10 40.74061 22.84088 5424 ft 280 kts 15°
2026-05-06 18:10 40.75660 22.85364 5099 ft 265 kts 51°
2026-05-06 18:11 40.76383 22.87479 4594 ft 255 kts 89°
2026-05-06 18:11 40.75964 22.89610 4417 ft 229 kts 129°
2026-05-06 18:11 40.74745 22.90710 4217 ft 208 kts 171°
2026-05-06 18:11 40.73361 22.90549 4017 ft 196 kts 192°
2026-05-06 18:12 40.72053 22.90585 3767 ft 188 kts 163°
2026-05-06 18:12 40.70957 22.91076 3545 ft 178 kts 167°
2026-05-06 18:12 40.69785 22.91433 3327 ft 167 kts 168°
2026-05-06 18:12 40.68689 22.91772 3116 ft 157 kts 168°
2026-05-06 18:13 40.67652 22.92099 2914 ft 151 kts 168°
2026-05-06 18:13 40.66664 22.92413 2733 ft 145 kts 168°
2026-05-06 18:13 40.65695 22.92721 2536 ft 141 kts 168°
2026-05-06 18:13 40.64752 22.93022 2358 ft 138 kts 167°
2026-05-06 18:14 40.63831 22.93316 2177 ft 135 kts 167°
2026-05-06 18:14 40.62923 22.93605 1997 ft 133 kts 166°
2026-05-06 18:14 40.62027 22.93891 1826 ft 132 kts 166°
2026-05-06 18:14 40.61139 22.94174 1655 ft 131 kts 166°
2026-05-06 18:15 40.60258 22.94455 1479 ft 130 kts 166°
2026-05-06 18:15 40.59379 22.94735 1303 ft 130 kts 166°
2026-05-06 18:15 40.58503 22.95014 1131 ft 129 kts 166°
2026-05-06 18:15 40.57630 22.95293 969 ft 131 kts 167°
2026-05-06 18:16 40.56739 22.95576 800 ft 133 kts 166°
2026-05-06 18:16 40.55838 22.95863 621 ft 133 kts 167°
2026-05-06 18:16 40.54932 22.96169 405 ft 136 kts 165°
2026-05-06 18:16 40.54020 22.96455 237 ft 134 kts 167°
2026-05-06 18:17 40.53110 22.96735 86 ft 135 kts 166°
2026-05-06 18:17 40.52273 22.97003 28 ft 117 kts 166°
2026-05-06 18:17 40.51777 22.97161 29 ft 30 kts 166°
2026-05-06 18:17 40.51689 22.97189 30 ft 16 kts 167°
2026-05-06 18:18 40.51562 22.97228 30 ft 20 kts 164°
2026-05-06 18:18 40.51518 22.97374 29 ft 19 kts 65°
2026-05-06 18:18 40.51619 22.97392 29 ft 15 kts 346°
2026-05-06 18:18 40.51715 22.97361 29 ft 14 kts 345°
2026-05-06 18:19 40.51821 22.97327 28 ft 17 kts 346°
2026-05-06 18:19 40.51956 22.97287 28 ft 22 kts 346°
2026-05-06 18:19 40.52110 22.97235 28 ft 24 kts 346°
2026-05-06 18:19 40.52276 22.97185 28 ft 26 kts 347°
2026-05-06 18:20 40.52381 22.97210 28 ft 9 kts 82°
2026-05-06 18:20 40.52398 22.97298 29 ft 11 kts 76°
2026-05-06 18:20 40.52371 22.97393 29 ft 13 kts 136°
2026-05-06 18:20 40.52309 22.97475 29 ft 9 kts 120°
2026-05-06 18:21 40.52331 22.97516 29 ft 3 kts 37°
2026-05-06 18:21 40.52345 22.97533 29 ft 2 kts 43°
2026-05-06 18:21 40.52348 22.97536 29 ft 0 kts 44°